Location: Stara Lesna
(49.1528°N, 20.2911°E)
Time: 10:19:55
(UTC+02:00)

MSX - Pass Details

Date: 21 September 2019
Orbit: 894 x 906 km, 98.7° (Epoch: 18 October)

Event Time Altitude Azimuth Distance (km) Brightness Sun altitude
Rises 05:42:38 0° 10° (N) 3,535 7.2 -7.4°
Reaches altitude 10° 05:45:08 10° 5° (N) 2,589 6.4 -7.0°
Maximum altitude 05:50:35 45° 294° (WNW) 1,203 4.2 -6.1°
Drops below altitude 10° 05:56:00 10° 223° (SW) 2,566 5.8 -5.3°
Sets 05:58:28 0° 218° (SW) 3,501 6.5 -4.9°
